Content
SEND FEEDBACK

Daily
Averages
Monthly
Summary
Canada

HAMILTON - UNIVERSITY, ONTARIO


Home > North America > Canada > Ontario
Elevation: 335 feet     Latitude: 43 17N     Longitude: 79 53W

WEATHER
 
SELECT A DAY
Number of Records: 131,882;   Date Range: 12/10/00 - 11/25/14
 
SHARE

PRINT THIS DATA

[ ← Previous Day ]
WEATHER ALMANAC - FEBRUARY 13, 2013
[ Next Day → ]
[ °C ]   °F
Weather ElementAverageHighLow
Temperature30.2 °F35.1 °F (4:00 pm)22.1 °F (11:00 pm)
Dewpoint19.6 °F24.3 °F (1:00 am)17.2 °F (12:00 pm)
Humidity64 %83 % (11:00 pm)40 % (1:00 pm)
Barometer29.82 in29.89 in (1:00 am)29.75 in (2:00 pm)
Wind Speed3.4 mph5.8 mph (5:00 am)
Weather ElementAverage
Wind DirectionWSW (258.5 °)

Weather ElementTotal
Precipitation---
Heating Degree Days36.4 (Base 65)
Averaged from 27 records on February 13, 2013
WEATHER CONDITIONS BREAKOUT
WIND DIRECTION BREAKOUT
WEATHER BY HOUR - FEBRUARY 13, 2013
[ °C ]   °F
Local TimeTemperatureDewpointHumidityBarometerVisibilityWind DirectionWind SpeedGust SpeedPrecipitationEventsConditions
1:00 AM30.0 °F24.0 °F71 %29.89 inWSW (240°)2.3 mph
1:00 AM30.0 °F24.3 °F79 %29.89 inWSW (240°)2.3 mph
2:00 AM30.2 °F24.3 °F79 %29.89 inWest (260°)1.2 mph
3:00 AM30.7 °F23.0 °F73 %29.88 inWSW (240°)3.5 mph
4:00 AM31.1 °F20.5 °F65 %29.86 inWest (280°)4.6 mph
5:00 AM29.7 °F19.6 °F66 %29.86 inWNW (290°)5.8 mph
6:00 AM29.3 °F19.2 °F66 %29.87 inWNW (290°)4.6 mph
7:00 AM29.0 °F18.0 °F53 %29.87 inWSW (250°)3.5 mph
7:00 AM28.8 °F18.5 °F66 %29.87 inWSW (250°)3.5 mph
8:00 AM28.6 °F18.7 °F66 %29.86 inSW (230°)2.3 mph
9:00 AM29.5 °F18.9 °F65 %29.85 inSW (230°)4.6 mph
10:00 AM30.0 °F18.3 °F62 %29.84 inWest (280°)5.8 mph
11:00 AM31.3 °F18.0 °F58 %29.81 inWSW (240°)3.5 mph
12:00 PM33.6 °F17.2 °F51 %29.80 inSSW (200°)3.5 mph
1:00 PM34.0 °F18.0 °F40 %29.79 inWest (270°)3.5 mph
1:00 PM34.2 °F18.5 °F53 %29.79 inWest (270°)3.5 mph
2:00 PM34.5 °F18.9 °F53 %29.75 inNW (310°)5.8 mph
3:00 PM34.9 °F19.0 °F52 %29.75 inWNW (300°)5.8 mph
4:00 PM35.1 °F19.0 °F52 %29.75 inWSW (250°)3.5 mph
5:00 PM34.2 °F18.9 °F54 %29.75 inWest (280°)4.6 mph
6:00 PM31.1 °F19.8 °F63 %29.75 inWNW (300°)3.5 mph
7:00 PM29.0 °F20.0 °F57 %29.77 inNNW (330°)2.3 mph
7:00 PM28.8 °F19.6 °F69 %29.77 inNNW (330°)2.3 mph
8:00 PM26.8 °F19.0 °F73 %29.79 inWNW (300°)2.3 mph
9:00 PM24.3 °F18.9 °F80 %29.79 inCalm
10:00 PM23.7 °F18.5 °F80 %29.81 inWSW (240°)1.2 mph
11:00 PM22.1 °F17.8 °F83 %29.82 inWest (280°)1.2 mph
Hourly data recorded from CXHM, located miles away from Hamilton - University, Ontario







STORIES FROM OUR PARTNERS